Les Masies de Roda





Hora UTC 16:40
Temperatura 24.2 ºC
Sòl 15 cm 24.2 ºC
Subsòl 10 cm 25.6 ºC
Humitat 61.7 %
Pressió 1017.3 hPa
Pluja 0.1 mm
Velocitat vent 12.0 km/h
Direcció vent ESE
Radiació solar 74.7 W/m²

Dades diàries 2019-09-20



Hora UTC (hivern +1h; estiu +2h)
Temperatura (ºC) Humitat (%) Pressió (hPa) Velocitat vent (km/h) Precipitació (mm) Radiació solar (W/m²)
Hora UTC Aire Sòl 15 cm Subsòl 10 cm Humitat Pressió Vel. Dir. Vel. Max Dir. Intent. màx 5 min. Rad. Sol.
00:05 16.1 15.7 18.7 97.4 1019.7 0.0 NNE 0.0 S 0.0 0.1
00:10 16.1 15.8 18.6 97.3 1019.6 0.0 NNE 0.0 SE 0.0 0.1
00:15 16.2 15.8 18.6 97.3 1019.6 0.0 NNE 0.0 SE 0.0 0.1
00:20 16.2 15.7 18.6 97.3 1019.6 0.0 NNE 0.0 E 0.0 0.1
00:25 16.2 15.8 18.6 97.3 1019.5 0.0 NNE 0.0 E 0.0 0.1
00:30 16.2 15.8 18.6 97.4 1019.5 0.0 NNE 0.0 E 0.0 0.1
00:35 16.3 15.8 18.6 97.6 1019.5 0.0 NNE 0.0 ENE 0.0 0.1
00:40 16.3 15.9 18.6 97.7 1019.5 0.0 NNE 0.0 ENE 0.0 0.1
00:45 16.3 15.8 18.6 97.7 1019.5 0.0 NNE 0.0 E 0.0 0.1
00:50 16.3 15.8 18.6 97.7 1019.4 0.0 NNE 0.0 E 0.0 0.1
00:55 16.3 15.8 18.6 97.7 1019.5 0.0 NNE 0.0 E 0.0 0.1
01:00 16.3 15.7 18.6 97.7 1019.5 0.0 NNE 0.0 E 0.0 0.1
01:05 16.2 15.8 18.6 97.7 1019.4 0.0 NNE 0.0 E 0.0 0.1
01:10 16.3 15.7 18.5 97.6 1019.4 0.0 NNE 0.0 E 0.0 0.1
01:15 16.2 15.7 18.5 97.6 1019.4 0.0 NNE 0.0 E 0.0 0.1
01:20 16.2 15.7 18.5 97.4 1019.4 0.0 NNE 0.0 E 0.0 0.1
01:25 16.2 15.7 18.5 97.4 1019.4 0.0 NNE 0.0 E 0.0 0.1
01:30 16.2 15.8 18.5 97.4 1019.3 0.0 NNE 0.0 E 0.0 0.1
01:35 16.2 15.7 18.5 97.4 1019.4 0.0 NNE 0.0 E 0.0 0.1
01:40 16.2 15.7 18.5 97.4 1019.4 0.0 NNE 0.0 E 0.0 0.1
01:45 16.2 15.7 18.5 97.4 1019.4 0.0 NNE 0.0 E 0.0 0.1
01:50 16.3 15.7 18.4 97.5 1019.4 0.0 NNE 0.0 E 0.0 0.1
01:55 16.3 15.8 18.4 97.4 1019.4 0.0 NNE 0.0 E 0.0 0.1
02:00 16.2 15.8 18.4 97.4 1019.3 0.0 NNE 0.0 E 0.0 0.1
02:05 16.3 15.8 18.4 97.6 1019.3 0.0 NNE 0.0 ENE 0.0 0.1
02:10 16.3 15.7 18.4 97.6 1019.3 0.0 NNE 0.0 NE 0.0 0.1
02:15 16.3 15.7 18.4 97.5 1019.3 0.0 NNE 0.0 NE 0.0 0.1
02:20 16.3 15.7 18.4 97.5 1019.3 0.0 NNE 0.0 NE 0.0 0.1
02:25 16.3 15.7 18.4 97.5 1019.2 0.0 NNE 0.0 NE 0.0 0.1
02:30 16.3 15.7 18.4 97.4 1019.2 0.0 NNE 0.0 NE 0.0 0.1
02:35 16.3 15.7 18.3 97.4 1019.2 0.0 NNE 0.0 NE 0.0 0.1
02:40 16.3 15.7 18.3 97.6 1019.2 0.0 NNE 0.0 NNW 0.0 0.1
02:45 16.3 15.7 18.3 97.7 1019.2 0.0 NNE 0.0 NNE 0.0 0.1
02:50 16.3 15.7 18.3 97.6 1019.2 0.0 NNE 0.0 ENE 0.0 0.1
02:55 16.3 15.7 18.3 97.6 1019.2 0.0 NNE 0.0 ENE 0.0 0.1
03:00 16.3 15.7 18.3 97.6 1019.1 0.0 NNE 0.0 ENE 0.0 0.1
03:05 16.3 15.7 18.3 97.6 1019.0 0.0 NNE 0.0 ENE 0.0 0.1
03:10 16.3 15.6 18.3 97.6 1019.0 0.0 NNE 0.0 E 0.0 0.1
03:15 16.3 15.6 18.3 97.6 1019.0 0.0 NNE 0.0 E 0.0 0.1
03:20 16.2 15.6 18.2 97.6 1019.0 0.0 NNE 0.0 E 0.0 0.1
03:25 16.2 15.6 18.2 97.5 1019.0 0.0 NNE 0.0 E 0.0 0.1
03:30 16.3 15.6 18.2 97.5 1018.9 0.0 NNE 0.0 E 0.0 0.1
03:35 16.3 15.6 18.2 97.7 1018.9 0.0 NNE 0.0 E 0.0 0.1
03:40 16.3 15.6 18.2 97.7 1018.9 0.0 NNE 0.0 E 0.0 0.1
03:45 16.2 15.6 18.2 97.6 1019.0 0.0 NNE 0.0 E 0.0 0.1
03:50 16.2 15.5 18.1 97.8 1019.1 0.0 NNE 0.0 WNW 0.0 0.1
03:55 16.2 15.6 18.1 97.9 1019.0 0.0 NNE 0.0 WNW 0.0 0.1
04:00 16.2 15.6 18.1 97.8 1019.0 0.0 NNE 0.0 WNW 0.0 0.1
04:05 16.2 15.5 18.1 97.7 1019.1 0.0 NNE 0.0 WNW 0.0 0.1
04:10 16.2 15.5 18.1 97.8 1019.0 0.0 NNE 0.0 WNW 0.0 0.1
04:15 16.2 15.5 18.1 97.7 1019.0 0.0 NNE 0.0 ENE 0.0 0.1
04:20 16.2 15.4 18.0 97.6 1018.9 0.0 NNE 0.0 ENE 0.0 0.1
04:25 16.2 15.3 18.0 97.7 1018.9 0.0 NNE 0.0 ENE 0.0 0.1
04:30 16.1 15.2 18.0 97.5 1019.0 0.0 NNE 0.0 ENE 0.0 0.1
04:35 16.1 15.1 17.9 97.6 1019.0 0.0 NNE 0.0 ENE 0.0 0.1
04:40 16.0 15.0 17.9 97.5 1019.0 0.0 NNE 0.0 ENE 0.0 0.1
04:45 16.0 14.8 17.8 97.6 1019.1 0.0 NNE 0.0 ENE 0.0 0.1
04:50 16.0 14.9 17.8 97.8 1019.1 0.0 NNE 0.0 ENE 0.0 0.1
04:55 15.9 14.9 17.8 97.7 1019.1 0.0 NNE 0.0 ENE 0.0 0.1
05:00 15.9 14.9 17.8 97.8 1019.2 0.0 NNE 0.0 ENE 0.0 0.1
05:05 15.9 15.0 17.7 97.9 1019.2 0.0 NNE 0.0 ENE 0.1 0.1
05:10 15.9 15.1 17.7 98.1 1019.1 0.0 NNE 0.0 ENE 0.0 0.1
05:15 16.0 15.2 17.7 98.2 1019.1 0.0 NNE 0.0 ENE 0.0 0.1
05:20 16.0 15.3 17.7 98.2 1019.2 0.0 NNE 0.0 ENE 0.0 0.2
05:25 16.0 15.3 17.7 98.1 1019.2 0.0 NNE 0.0 ENE 0.0 0.5
05:30 16.0 15.3 17.7 98.1 1019.3 0.0 NNE 0.0 ENE 0.0 1.3
05:35 16.0 15.3 17.7 98.2 1019.3 0.0 NNE 0.0 ENE 0.0 2.6
05:40 16.0 15.4 17.7 98.2 1019.3 0.0 NNE 0.0 ENE 0.0 4.7
05:45 16.0 15.5 17.7 98.2 1019.3 0.0 NNE 0.0 ENE 0.0 6.9
05:50 16.0 15.4 17.7 98.1 1019.3 0.0 NNE 0.0 ENE 0.0 9.0
05:55 16.1 15.3 17.7 98.1 1019.2 0.0 NNE 0.0 ENE 0.0 11.2
06:00 16.1 15.3 17.7 98.0 1019.3 0.0 NNE 0.0 ENE 0.0 13.7
06:05 16.0 15.3 17.7 97.8 1019.3 0.0 NNE 0.0 NNE 0.0 15.4
06:10 16.0 15.4 17.7 97.7 1019.3 0.0 NNE 0.0 ENE 0.0 18.3
06:15 16.0 15.4 17.7 97.6 1019.4 0.0 NNE 0.0 NE 0.0 21.9
06:20 15.9 15.4 17.7 97.3 1019.4 0.0 NNE 0.0 NE 0.0 28.7
06:25 15.9 15.3 17.7 97.1 1019.5 0.0 NNE 0.0 NNE 0.0 37.8
06:30 15.9 15.2 17.7 97.1 1019.6 0.0 NNE 0.0 NNE 0.0 51.1
06:35 16.0 15.3 17.7 97.2 1019.6 0.0 NNE 0.0 NNE 0.0 59.8
06:40 16.0 15.4 17.7 97.2 1019.6 0.0 NNE 0.0 NNE 0.0 57.6
06:45 16.1 15.5 17.7 97.1 1019.6 0.0 NNE 0.0 NNE 0.0 63.3
06:50 16.2 15.6 17.8 97.0 1019.6 0.0 NNE 0.0 NNE 0.0 62.4
06:55 16.2 15.6 17.8 96.8 1019.7 0.0 NNE 0.0 NNE 0.0 63.8
07:00 16.2 15.6 17.8 96.4 1019.7 0.0 NNE 0.0 NNE 0.0 67.0
07:05 16.3 15.8 17.9 96.2 1019.8 0.0 NNE 0.0 NNE 0.0 71.6
07:10 16.3 16.0 17.9 95.8 1019.8 0.0 NNE 0.0 NNE 0.0 72.4
07:15 16.4 16.1 18.0 96.0 1019.9 0.0 NNE 0.0 NNE 0.0 74.5
07:20 16.5 16.3 18.0 95.5 1019.9 0.0 NNE 0.0 NNE 0.0 80.0
07:25 16.5 16.4 18.1 95.4 1020.0 0.0 NNE 0.0 N 0.0 66.4
07:30 16.5 16.4 18.1 95.1 1020.1 0.0 NNE 0.0 N 0.0 74.1
07:35 16.6 16.5 18.2 95.2 1020.2 0.0 NNE 0.0 NW 0.0 76.0
07:40 16.7 16.6 18.2 95.4 1020.3 0.0 NNE 0.0 WNW 0.0 82.2
07:45 16.7 16.6 18.3 95.1 1020.3 0.0 NNE 0.0 WNW 0.0 93.3
07:50 16.7 16.7 18.4 94.3 1020.3 0.0 NNE 0.0 WNW 0.0 91.5
07:55 16.8 16.7 18.4 94.0 1020.3 0.0 NNE 0.0 WNW 0.0 92.9
08:00 16.9 16.9 18.5 94.1 1020.4 0.0 NNE 0.0 NW 0.0 134.0
08:05 17.0 17.2 18.6 93.5 1020.5 0.0 NNE 0.0 NW 0.0 178.8
08:10 17.1 17.3 18.7 93.5 1020.4 0.0 NNE 0.0 NW 0.0 174.6
08:15 17.3 17.7 18.9 92.9 1020.5 0.0 NNE 0.0 NNW 0.0 215.5
08:20 17.4 18.3 19.0 91.8 1020.5 0.0 NNE 0.0 ENE 0.0 256.6
08:25 17.5 18.4 19.2 91.4 1020.5 0.0 NNE 0.0 ESE 0.0 247.1
08:30 17.7 18.7 19.3 90.8 1020.5 0.0 NNE 0.0 SSE 0.0 241.0
08:35 17.8 18.6 19.5 89.2 1020.5 0.0 NNE 0.0 N 0.0 245.2
08:40 18.2 18.6 19.7 89.0 1020.5 0.0 NNE 0.0 NE 0.0 355.9
08:45 18.5 19.7 20.0 87.6 1020.5 0.0 NNE 0.0 E 0.0 432.4
08:50 18.6 20.2 20.4 86.4 1020.5 0.0 NNE 0.0 ENE 0.0 440.8
08:55 18.9 19.8 20.7 86.4 1020.5 0.0 S 3.4 S 0.0 305.6
09:00 19.0 19.6 20.8 85.8 1020.5 0.0 NNE 0.0 S 0.0 461.5
09:05 19.4 20.4 21.0 84.4 1020.5 0.0 NNE 0.0 SE 0.0 484.9
09:10 19.9 21.3 21.3 81.5 1020.5 0.5 SE 6.1 SE 0.0 513.5
09:15 19.9 22.0 21.6 81.4 1020.5 0.3 ESE 3.4 SE 0.0 523.8
09:20 19.6 22.4 21.9 82.5 1020.4 0.5 ESE 6.1 SE 0.0 536.0
09:25 19.9 22.7 22.2 82.0 1020.4 0.3 ENE 6.1 ENE 0.0 539.8
09:30 20.2 22.7 22.5 81.1 1020.3 0.3 ESE 6.1 ESE 0.0 542.9
09:35 20.5 23.2 22.7 80.6 1020.3 0.0 NNE 0.0 E 0.0 535.7
09:40 20.7 23.6 23.0 80.1 1020.3 0.0 NNE 0.0 NE 0.0 550.1
09:45 21.0 22.2 23.4 79.3 1020.3 0.0 NNE 0.0 W 0.0 568.2
09:50 21.0 22.0 23.5 78.0 1020.3 0.0 NNE 0.0 WNW 0.0 534.0
09:55 21.3 22.3 23.6 77.0 1020.3 0.0 NNE 0.0 WNW 0.0 584.8
10:00 21.5 22.8 23.9 76.1 1020.2 0.0 NNE 0.0 NNW 0.0 579.6
10:05 21.5 22.4 24.1 75.5 1020.2 0.0 NNE 0.0 NNW 0.0 425.5
10:10 21.7 22.9 24.2 74.4 1020.2 0.3 N 6.1 NW 0.0 375.8
10:15 22.0 22.8 24.3 76.7 1020.1 1.8 WNW 6.1 WNW 0.0 446.2
10:20 22.2 22.1 24.4 72.6 1020.0 1.1 W 8.8 W 0.0 579.0
10:25 23.0 23.5 24.4 70.6 1020.0 0.7 SSW 3.4 SSW 0.0 665.1
10:30 23.5 24.2 24.7 66.3 1020.0 1.8 ESE 8.8 ESE 0.0 671.6
10:35 23.8 24.8 24.9 63.5 1019.9 1.7 SE 8.8 SE 0.0 692.1
10:40 24.0 25.5 25.2 62.3 1019.9 3.8 ESE 8.8 E 0.0 681.9
10:45 24.1 26.3 25.5 61.9 1019.9 1.7 ENE 6.1 ENE 0.0 644.8
10:50 24.0 27.0 25.8 60.6 1019.8 2.3 NE 8.8 E 0.0 641.7
10:55 24.1 27.1 26.1 59.6 1019.8 3.0 SE 8.8 ESE 0.0 689.3
11:00 24.7 27.0 26.2 56.8 1019.7 3.6 SSE 8.8 S 0.0 690.0
11:05 24.7 28.5 26.3 54.9 1019.6 3.2 ENE 8.8 E 0.0 623.2
11:10 24.4 28.7 26.5 55.9 1019.6 4.4 E 11.5 SE 0.0 701.9
11:15 24.7 28.9 26.7 53.1 1019.6 3.2 SE 8.8 SE 0.0 684.2
11:20 25.0 28.9 26.7 51.2 1019.6 2.0 SSW 8.8 ESE 0.0 660.9
11:25 24.8 28.6 26.8 51.9 1019.5 5.5 NNE 11.5 NE 0.0 692.1
11:30 24.9 29.6 27.0 50.6 1019.5 4.2 ENE 8.8 ENE 0.0 693.3
11:35 24.9 29.5 27.2 50.6 1019.4 3.2 SSE 8.8 SSE 0.0 698.0
11:40 25.4 29.3 27.2 50.6 1019.3 4.4 SSE 8.8 SSW 0.0 698.5
11:45 25.7 29.8 27.3 49.1 1019.2 4.3 SE 8.8 SSE 0.0 698.2
11:50 25.8 30.2 27.3 49.1 1019.1 0.9 NNE 6.1 NNE 0.0 695.8
11:55 25.8 30.7 27.5 49.2 1019.1 0.9 NNW 6.1 NE 0.0 695.2
12:00 26.1 30.7 27.8 50.8 1019.1 1.2 WNW 6.1 WNW 0.0 698.0
12:05 26.3 30.8 27.9 49.0 1019.0 1.8 E 6.1 NNE 0.0 698.3
12:10 26.4 30.9 28.0 46.9 1019.0 4.6 ESE 8.8 SE 0.0 697.4
12:15 26.3 31.3 28.0 49.6 1018.9 5.7 SE 14.2 ESE 0.0 694.0
12:20 26.2 31.2 28.1 49.2 1018.8 6.3 SE 14.2 SE 0.0 692.2
12:25 26.0 30.9 28.1 50.1 1018.8 1.6 S 6.1 SSE 0.0 691.8
12:30 26.0 31.2 28.1 50.0 1018.7 2.3 S 6.1 WNW 0.0 689.1
12:35 26.0 30.8 28.3 50.0 1018.7 2.3 NNW 8.8 NW 0.0 684.8
12:40 26.1 31.3 28.3 51.4 1018.6 4.1 SE 8.8 SE 0.0 680.4
12:45 26.2 31.3 28.4 52.0 1018.6 2.2 NW 6.1 NNW 0.0 678.6
12:50 26.4 31.4 28.5 50.5 1018.6 6.4 SSE 11.5 SSW 0.0 682.5
12:55 26.4 32.6 28.5 50.3 1018.6 2.8 SE 8.8 SSE 0.0 681.3
13:00 26.6 32.5 28.6 50.4 1018.5 2.8 SSW 8.8 SW 0.0 675.5
13:05 26.7 33.3 28.8 50.0 1018.5 0.8 ENE 6.1 NE 0.0 667.0
13:10 26.6 33.7 29.0 50.9 1018.4 5.2 ENE 11.5 ENE 0.0 670.7
13:15 26.6 33.0 29.2 50.9 1018.4 5.4 E 14.2 ESE 0.0 673.1
13:20 26.8 33.2 29.1 50.9 1018.4 2.6 E 8.8 ENE 0.0 647.6
13:25 26.7 33.2 29.2 50.1 1018.4 7.1 SE 14.2 SE 0.0 667.6
13:30 26.4 31.9 29.2 50.6 1018.3 7.0 SSE 14.2 ESE 0.0 648.9
13:35 26.4 31.9 29.0 51.2 1018.2 6.3 ESE 14.2 ESE 0.0 573.8
13:40 26.4 31.7 29.0 51.1 1018.1 6.6 SE 14.2 SSE 0.0 573.7
13:45 26.3 31.0 28.9 50.7 1018.1 6.9 SSE 14.2 SSE 0.0 594.1
13:50 26.4 31.2 28.8 50.8 1018.0 5.6 ESE 11.5 SE 0.0 610.0
13:55 26.3 31.7 28.8 50.6 1018.0 8.9 SE 16.9 SE 0.0 569.0
14:00 26.3 31.3 28.8 50.6 1018.0 8.6 SE 14.2 E 0.0 548.6
14:05 26.2 31.0 28.7 50.6 1018.0 9.0 ESE 16.9 SSE 0.0 574.3
14:10 26.2 31.3 28.6 50.8 1017.9 9.3 ESE 19.6 ESE 0.0 557.2
14:15 26.3 31.6 28.6 51.1 1017.9 8.9 E 19.6 E 0.0 546.6
14:20 26.2 31.6 28.6 50.3 1017.9 8.8 ESE 16.9 E 0.0 511.3
14:25 26.2 31.6 28.5 50.3 1017.9 7.9 ESE 14.2 ESE 0.0 444.1
14:30 26.2 31.5 28.5 49.8 1017.9 10.0 ESE 16.9 ESE 0.0 519.3
14:35 25.9 30.9 28.4 49.8 1017.8 11.4 ESE 19.6 E 0.0 505.4
14:40 25.9 30.6 28.3 50.3 1017.6 11.0 ESE 16.9 SE 0.0 487.0
14:45 26.0 30.6 28.2 50.2 1017.5 10.3 ESE 16.9 SSE 0.0 488.7
14:50 26.0 30.7 28.2 50.5 1017.4 11.1 ESE 19.6 E 0.0 479.4
14:55 25.9 30.6 28.2 51.3 1017.4 9.1 E 19.6 E 0.0 464.0
15:00 25.9 30.4 28.2 50.8 1017.3 12.4 ESE 22.3 ESE 0.0 448.7
15:05 25.7 29.8 28.1 52.0 1017.3 8.5 ESE 16.9 E 0.0 439.6
15:10 26.0 29.6 28.0 51.3 1017.3 11.8 ESE 22.3 ESE 0.0 426.6
15:15 25.8 29.1 27.9 51.1 1017.3 10.3 ESE 22.3 ESE 0.0 413.5
15:20 26.0 28.9 27.8 51.5 1017.3 9.4 ESE 19.6 E 0.0 400.2
15:25 25.9 28.6 27.7 52.0 1017.3 11.9 ESE 22.3 ESE 0.0 384.5
15:30 25.6 28.2 27.6 52.9 1017.3 12.2 ESE 22.3 E 0.0 364.7
15:35 25.6 28.0 27.4 53.4 1017.3 8.4 ESE 16.9 ESE 0.0 357.7
15:40 25.6 27.9 27.3 53.4 1017.3 10.8 SE 19.6 E 0.0 338.1
15:45 25.4 27.6 27.2 53.6 1017.3 12.2 ESE 22.3 ESE 0.0 330.0
15:50 25.5 27.6 27.1 54.2 1017.3 9.6 ESE 19.6 ENE 0.0 314.6
15:55 25.5 27.6 27.1 53.9 1017.3 10.2 ESE 19.6 E 0.0 289.6
16:00 25.3 27.1 26.9 54.3 1017.3 12.0 ESE 19.6 ESE 0.0 270.9
16:05 25.3 26.9 26.8 55.2 1017.4 8.6 SE 19.6 SE 0.0 252.6
16:10 25.2 26.7 26.7 55.2 1017.4 10.6 ESE 19.6 SE 0.0 258.0
16:15 25.1 26.6 26.6 55.9 1017.4 10.9 ESE 27.7 ESE 0.0 243.9
16:20 24.9 26.2 26.4 57.1 1017.4 13.0 ESE 22.3 E 0.0 229.2
16:25 24.8 25.9 26.2 58.1 1017.4 12.4 ESE 19.6 ESE 0.0 218.0
16:30 24.7 25.6 26.1 58.8 1017.3 12.3 ESE 22.3 ESE 0.0 150.1
16:35 24.5 25.0 25.9 60.0 1017.3 14.0 ESE 25.0 ESE 0.0 117.8
16:40 24.2 24.2 25.6 61.7 1017.3 12.0 ESE 22.3 ESE 0.0 74.7
Màxima 26.9 33.7 29.2 98.2 1020.5 14.0 ESE 27.7 ESE 0.1 701.9
Mínima 15.9 14.8 17.7 46.9 1017.3
Total 0.1